| time (UTC) | temp F | wind direction | speed MPH | gust MPH | rain 1hr in | rain 24hr in | rain mn in | humidity % | barometer mb |
| 20260903015853 | 69 | 251 | 0.0 | 0.0 | 0.00 | 0.00 | 0.00 | 42 | 1014.3 |
| 20260903015645 | 69 | 251 | 0.0 | 0.0 | 0.00 | 0.00 | 0.00 | 43 | 1014.3 |
| 20260903015436 | 69 | 251 | 0.0 | 0.0 | 0.00 | 0.00 | 0.00 | 42 | 1014.3 |
| 20260903015227 | 69 | 251 | 0.0 | 4.0 | 0.00 | 0.00 | 0.00 | 41 | 1014.3 |
| 20260903015021 | 69 | 251 | 0.0 | 4.0 | 0.00 | 0.00 | 0.00 | 42 | 1014.3 |
| 20260903014626 | 69 | 225 | 0.0 | 2.0 | 0.00 | 0.00 | 0.00 | 41 | 1014.2 |
| 20260903014416 | 70 | 225 | 0.0 | 2.0 | 0.00 | 0.00 | 0.00 | 41 | 1014.3 |
| 20260903014026 | 70 | 225 | 0.0 | 1.0 | 0.00 | 0.00 | 0.00 | 42 | 1014.3 |
| 20260903013818 | 70 | 225 | 0.0 | 0.0 | 0.00 | 0.00 | 0.00 | 41 | 1014.3 |
| 20260903013606 | 70 | 225 | 0.0 | 0.0 | 0.00 | 0.00 | 0.00 | 41 | 1014.3 |
| 20260903013355 | 70 | 225 | 0.0 | 1.0 | 0.00 | 0.00 | 0.00 | 41 | 1014.2 |
| 20260903013144 | 70 | 225 | 0.0 | 1.0 | 0.00 | 0.00 | 0.00 | 41 | 1014.2 |
| 20260903012932 | 70 | 225 | 0.0 | 0.0 | 0.00 | 0.00 | 0.00 | 41 | 1014.2 |
| 20260903012723 | 71 | 225 | 0.0 | 0.0 | 0.00 | 0.00 | 0.00 | 40 | 1014.2 |
| 20260903012511 | 71 | 225 | 0.0 | 0.0 | 0.00 | 0.00 | 0.00 | 40 | 1014.2 |
| 20260903012259 | 71 | 225 | 0.0 | 4.0 | 0.00 | 0.00 | 0.00 | 40 | 1014.2 |
| 20260903012056 | 71 | 225 | 0.0 | 4.0 | 0.00 | 0.00 | 0.00 | 40 | 1014.2 |
| 20260903011843 | 71 | 225 | 0.0 | 4.0 | 0.00 | 0.00 | 0.00 | 40 | 1014.2 |
| 20260903011638 | 71 | 228 | 0.0 | 4.0 | 0.00 | 0.00 | 0.00 | 39 | 1014.2 |
| 20260903011431 | 71 | 228 | 0.0 | 4.0 | 0.00 | 0.00 | 0.00 | 39 | 1014.2 |
| 20260903011220 | 71 | 286 | 0.0 | 1.0 | 0.00 | 0.00 | 0.00 | 40 | 1014.2 |
| 20260903011010 | 72 | 287 | 0.0 | 0.0 | 0.00 | 0.00 | 0.00 | 39 | 1014.2 |
| 20260903010808 | 72 | 287 | 0.0 | 5.0 | 0.00 | 0.00 | 0.00 | 39 | 1014.3 |
| 20260903010421 | 72 | 180 | 0.0 | 5.0 | 0.00 | 0.00 | 0.00 | 39 | 1014.3 |
| 20260903005848 | 72 | 324 | 0.0 | 5.0 | 0.00 | 0.00 | 0.00 | 39 | 1014.3 |
| 20260903005647 | 72 | 267 | 0.0 | 0.0 | 0.00 | 0.00 | 0.00 | 39 | 1014.2 |
| 20260903005444 | 72 | 267 | 0.0 | 5.0 | 0.00 | 0.00 | 0.00 | 39 | 1014.2 |
| 20260903005233 | 73 | 267 | 0.0 | 5.0 | 0.00 | 0.00 | 0.00 | 38 | 1014.2 |
| 20260903004514 | 73 | 273 | 0.0 | 6.0 | 0.00 | 0.00 | 0.00 | 38 | 1014.2 |
| 20260903004303 | 73 | 294 | 1.0 | 6.0 | 0.00 | 0.00 | 0.00 | 38 | 1014.3 |
| 20260903004101 | 73 | 350 | 0.0 | 6.0 | 0.00 | 0.00 | 0.00 | 38 | 1014.2 |
| 20260903003847 | 73 | 252 | 1.0 | 6.0 | 0.00 | 0.00 | 0.00 | 37 | 1014.2 |
| 20260903003637 | 73 | 257 | 0.0 | 6.0 | 0.00 | 0.00 | 0.00 | 37 | 1014.2 |
| 20260903003427 | 73 | 225 | 0.0 | 6.0 | 0.00 | 0.00 | 0.00 | 37 | 1014.2 |
| 20260903003220 | 74 | 225 | 0.0 | 6.0 | 0.00 | 0.00 | 0.00 | 37 | 1014.2 |
| 20260903002830 | 74 | 151 | 0.0 | 6.0 | 0.00 | 0.00 | 0.00 | 37 | 1014.3 |
| 20260903002619 | 74 | 150 | 0.0 | 6.0 | 0.00 | 0.00 | 0.00 | 37 | 1014.3 |
| 20260903002417 | 74 | 219 | 0.0 | 5.0 | 0.00 | 0.00 | 0.00 | 37 | 1014.2 |
| 20260903002215 | 74 | 170 | 0.0 | 5.0 | 0.00 | 0.00 | 0.00 | 37 | 1014.2 |
| 20260903002008 | 74 | 222 | 0.0 | 5.0 | 0.00 | 0.00 | 0.00 | 37 | 1014.2 |
| 20260903001614 | 74 | 211 | 0.0 | 6.0 | 0.00 | 0.00 | 0.00 | 37 | 1014.3 |
| 20260903001411 | 74 | 191 | 0.0 | 6.0 | 0.00 | 0.00 | 0.00 | 38 | 1014.3 |
| 20260903001200 | 74 | 191 | 0.0 | 6.0 | 0.00 | 0.00 | 0.00 | 36 | 1014.3 |
| 20260903000952 | 74 | 193 | 0.0 | 6.0 | 0.00 | 0.00 | 0.00 | 38 | 1014.3 |
| 20260903000741 | 74 | 202 | 0.0 | 6.0 | 0.00 | 0.00 | 0.00 | 37 | 1014.3 |
| 20260903000538 | 74 | 216 | 0.0 | 6.0 | 0.00 | 0.00 | 0.00 | 36 | 1014.3 |
| 20260903000149 | 74 | 217 | 1.0 | 6.0 | 0.00 | 0.00 | 0.00 | 36 | 1014.4 |
| 20260902235936 | 74 | 212 | 0.0 | 6.0 | 0.00 | 0.00 | 0.00 | 37 | 1014.5 |
| 20260902235732 | 75 | 224 | 0.0 | 5.0 | 0.00 | 0.00 | 0.00 | 36 | 1014.5 |
| 20260902235336 | 75 | 266 | 0.0 | 4.0 | 0.00 | 0.00 | 0.00 | 37 | 1014.5 |
| 20260902235123 | 75 | 269 | 0.0 | 2.0 | 0.00 | 0.00 | 0.00 | 36 | 1014.4 |
| 20260902234917 | 75 | 269 | 0.0 | 0.0 | 0.00 | 0.00 | 0.00 | 37 | 1014.5 |
| 20260902234712 | 75 | 269 | 0.0 | 4.0 | 0.00 | 0.00 | 0.00 | 36 | 1014.5 |
| 20260902234503 | 75 | 265 | 0.0 | 4.0 | 0.00 | 0.00 | 0.00 | 35 | 1014.4 |
| 20260902234256 | 75 | 265 | 0.0 | 4.0 | 0.00 | 0.00 | 0.00 | 35 | 1014.5 |
| 20260902233903 | 75 | 180 | 0.0 | 3.0 | 0.00 | 0.00 | 0.00 | 36 | 1014.4 |
| 20260902233515 | 76 | 207 | 0.0 | 2.0 | 0.00 | 0.00 | 0.00 | 36 | 1014.4 |
| 20260902233126 | 76 | 207 | 0.0 | 6.0 | 0.00 | 0.00 | 0.00 | 36 | 1014.5 |
| 20260902232924 | 76 | 215 | 0.0 | 6.0 | 0.00 | 0.00 | 0.00 | 35 | 1014.6 |
| 20260902232719 | 76 | 240 | 0.0 | 6.0 | 0.00 | 0.00 | 0.00 | 35 | 1014.6 |
| 20260902232331 | 75 | 237 | 1.0 | 6.0 | 0.00 | 0.00 | 0.00 | 35 | 1014.6 |
| 20260902231939 | 75 | 217 | 1.0 | 6.0 | 0.00 | 0.00 | 0.00 | 36 | 1014.5 |
| 20260902231729 | 75 | 237 | 1.0 | 6.0 | 0.00 | 0.00 | 0.00 | 34 | 1014.6 |
| 20260902231518 | 76 | 171 | 1.0 | 6.0 | 0.00 | 0.00 | 0.00 | 35 | 1014.5 |
| 20260902231316 | 76 | 209 | 1.0 | 6.0 | 0.00 | 0.00 | 0.00 | 34 | 1014.6 |
| 20260902231109 | 76 | 211 | 1.0 | 6.0 | 0.00 | 0.00 | 0.00 | 34 | 1014.6 |
| 20260902230856 | 76 | 209 | 1.0 | 6.0 | 0.00 | 0.00 | 0.00 | 35 | 1014.6 |
| 20260902230644 | 76 | 205 | 1.0 | 6.0 | 0.00 | 0.00 | 0.00 | 33 | 1014.6 |
| 20260902230441 | 76 | 203 | 1.0 | 6.0 | 0.00 | 0.00 | 0.00 | 36 | 1014.6 |
| 20260902230239 | 76 | 156 | 0.0 | 5.0 | 0.00 | 0.00 | 0.00 | 36 | 1014.7 |
| 20260902230034 | 76 | 209 | 0.0 | 3.0 | 0.00 | 0.00 | 0.00 | 35 | 1014.6 |
| 20260902225644 | 76 | 208 | 0.0 | 3.0 | 0.00 | 0.00 | 0.00 | 35 | 1014.6 |
| 20260902225436 | 75 | 336 | 0.0 | 3.0 | 0.00 | 0.00 | 0.00 | 36 | 1014.6 |
| 20260902225232 | 75 | 87 | 0.0 | 3.0 | 0.00 | 0.00 | 0.00 | 36 | 1014.6 |
| 20260902225027 | 75 | 199 | 0.0 | 3.0 | 0.00 | 0.00 | 0.00 | 38 | 1014.7 |
| 20260902224637 | 75 | 198 | 1.0 | 4.0 | 0.00 | 0.00 | 0.00 | 37 | 1014.7 |
| 20260902224432 | 75 | 237 | 0.0 | 4.0 | 0.00 | 0.00 | 0.00 | 36 | 1014.7 |
| 20260902224225 | 75 | 237 | 0.0 | 4.0 | 0.00 | 0.00 | 0.00 | 36 | 1014.8 |
| 20260902223837 | 75 | 263 | 0.0 | 7.0 | 0.00 | 0.00 | 0.00 | 36 | 1014.8 |
| 20260902223633 | 74 | 213 | 1.0 | 7.0 | 0.00 | 0.00 | 0.00 | 37 | 1014.8 |
| 20260902223243 | 75 | 271 | 1.0 | 7.0 | 0.00 | 0.00 | 0.00 | 38 | 1014.8 |
| 20260902223034 | 75 | 275 | 1.0 | 7.0 | 0.00 | 0.00 | 0.00 | 35 | 1014.9 |
| 20260902222828 | 75 | 275 | 1.0 | 7.0 | 0.00 | 0.00 | 0.00 | 35 | 1014.9 |
| 20260902222617 | 75 | 304 | 1.0 | 7.0 | 0.00 | 0.00 | 0.00 | 36 | 1014.9 |
| 20260902222226 | 75 | 279 | 1.0 | 7.0 | 0.00 | 0.00 | 0.00 | 38 | 1014.9 |
| 20260902222014 | 75 | 266 | 1.0 | 7.0 | 0.00 | 0.00 | 0.00 | 37 | 1015.0 |
| 20260902221802 | 74 | 272 | 1.0 | 6.0 | 0.00 | 0.00 | 0.00 | 43 | 1014.9 |
| 20260902221600 | 74 | 273 | 1.0 | 6.0 | 0.00 | 0.00 | 0.00 | 37 | 1015.0 |
| 20260902221207 | 74 | 204 | 1.0 | 6.0 | 0.00 | 0.00 | 0.00 | 41 | 1015.0 |
| 20260902220818 | 74 | 158 | 1.0 | 4.0 | 0.00 | 0.00 | 0.00 | 42 | 1014.9 |
| 20260902220614 | 74 | 196 | 0.0 | 4.0 | 0.00 | 0.00 | 0.00 | 42 | 1014.9 |
| 20260902220226 | 73 | 172 | 1.0 | 4.0 | 0.00 | 0.00 | 0.00 | 44 | 1015.0 |
| 20260902220020 | 73 | 186 | 1.0 | 1.0 | 0.00 | 0.00 | 0.00 | 39 | 1015.1 |
| 20260902215812 | 73 | 185 | 1.0 | 6.0 | 0.00 | 0.00 | 0.00 | 41 | 1015.1 |
| 20260902215603 | 73 | 221 | 1.0 | 6.0 | 0.00 | 0.00 | 0.00 | 43 | 1015.1 |
| 20260902215359 | 72 | 242 | 1.0 | 6.0 | 0.00 | 0.00 | 0.00 | 43 | 1015.1 |
| 20260902215149 | 73 | 174 | 1.0 | 6.0 | 0.00 | 0.00 | 0.00 | 44 | 1015.3 |
| 20260902214939 | 73 | 148 | 0.0 | 6.0 | 0.00 | 0.00 | 0.00 | 44 | 1015.2 |
| 20260902214729 | 72 | 148 | 0.0 | 6.0 | 0.00 | 0.00 | 0.00 | 45 | 1015.3 |
| 20260902214520 | 72 | 149 | 1.0 | 6.0 | 0.00 | 0.00 | 0.00 | 43 | 1015.4 |
| 20260902214315 | 73 | 163 | 1.0 | 6.0 | 0.00 | 0.00 | 0.00 | 44 | 1015.4 |
| 20260902213926 | 73 | 205 | 1.0 | 6.0 | 0.00 | 0.00 | 0.00 | 42 | 1015.4 |
| 20260902213720 | 73 | 203 | 1.0 | 6.0 | 0.00 | 0.00 | 0.00 | 40 | 1015.4 |
| 20260902213508 | 74 | 207 | 1.0 | 6.0 | 0.00 | 0.00 | 0.00 | 38 | 1015.4 |
| 20260902213256 | 74 | 213 | 1.0 | 6.0 | 0.00 | 0.00 | 0.00 | 43 | 1015.4 |
| 20260902213047 | 74 | 290 | 1.0 | 6.0 | 0.00 | 0.00 | 0.00 | 38 | 1015.5 |
| 20260902212835 | 74 | 290 | 1.0 | 8.0 | 0.00 | 0.00 | 0.00 | 43 | 1015.4 |
| 20260902212627 | 74 | 295 | 1.0 | 8.0 | 0.00 | 0.00 | 0.00 | 38 | 1015.5 |
| 20260902212415 | 74 | 273 | 0.0 | 8.0 | 0.00 | 0.00 | 0.00 | 38 | 1015.4 |
| 20260902212019 | 74 | 244 | 0.0 | 8.0 | 0.00 | 0.00 | 0.00 | 39 | 1015.5 |
| 20260902211815 | 74 | 242 | 1.0 | 8.0 | 0.00 | 0.00 | 0.00 | 38 | 1015.5 |
| 20260902211424 | 74 | 241 | 2.0 | 8.0 | 0.00 | 0.00 | 0.00 | 37 | 1015.5 |
| 20260902211214 | 74 | 311 | 2.0 | 8.0 | 0.00 | 0.00 | 0.00 | 37 | 1015.6 |
| 20260902210817 | 74 | 248 | 1.0 | 6.0 | 0.00 | 0.00 | 0.00 | 39 | 1015.7 |
| 20260902210608 | 74 | 165 | 0.0 | 5.0 | 0.00 | 0.00 | 0.00 | 40 | 1015.7 |
| 20260902210402 | 74 | 238 | 1.0 | 5.0 | 0.00 | 0.00 | 0.00 | 39 | 1015.6 |
| 20260902210151 | 74 | 220 | 1.0 | 5.0 | 0.00 | 0.00 | 0.00 | 40 | 1015.6 |
| 20260902205940 | 74 | 196 | 0.0 | 5.0 | 0.00 | 0.00 | 0.00 | 39 | 1015.7 |
| 20260902205737 | 74 | 151 | 0.0 | 5.0 | 0.00 | 0.00 | 0.00 | 39 | 1015.7 |
| 20260902205527 | 74 | 152 | 1.0 | 7.0 | 0.00 | 0.00 | 0.00 | 40 | 1015.6 |
| 20260902205316 | 74 | 230 | 1.0 | 7.0 | 0.00 | 0.00 | 0.00 | 40 | 1015.6 |
| 20260902205105 | 74 | 175 | 1.0 | 7.0 | 0.00 | 0.00 | 0.00 | 39 | 1015.6 |
| 20260902204901 | 74 | 157 | 1.0 | 7.0 | 0.00 | 0.00 | 0.00 | 39 | 1015.6 |
| 20260902204659 | 74 | 193 | 1.0 | 7.0 | 0.00 | 0.00 | 0.00 | 39 | 1015.6 |
| 20260902204449 | 74 | 229 | 1.0 | 7.0 | 0.00 | 0.00 | 0.00 | 40 | 1015.7 |
| 20260902204238 | 73 | 249 | 1.0 | 7.0 | 0.00 | 0.00 | 0.00 | 39 | 1015.6 |
| 20260902204031 | 73 | 198 | 1.0 | 7.0 | 0.00 | 0.00 | 0.00 | 40 | 1015.6 |
| 20260902203828 | 73 | 57 | 1.0 | 7.0 | 0.00 | 0.00 | 0.00 | 39 | 1015.6 |
| 20260902203255 | 73 | 265 | 1.0 | 6.0 | 0.00 | 0.00 | 0.00 | 40 | 1015.5 |
| 20260902203045 | 73 | 227 | 1.0 | 6.0 | 0.00 | 0.00 | 0.00 | 40 | 1015.6 |
| 20260902202651 | 72 | 195 | 0.0 | 5.0 | 0.00 | 0.00 | 0.00 | 42 | 1015.6 |
| 20260902202437 | 73 | 256 | 1.0 | 5.0 | 0.00 | 0.00 | 0.00 | 41 | 1015.6 |
| 20260902202231 | 73 | 259 | 1.0 | 5.0 | 0.00 | 0.00 | 0.00 | 41 | 1015.6 |
| 20260902202023 | 73 | 285 | 1.0 | 5.0 | 0.00 | 0.00 | 0.00 | 41 | 1015.6 |
| 20260902201629 | 73 | 318 | 2.0 | 5.0 | 0.00 | 0.00 | 0.00 | 41 | 1015.6 |
| 20260902201425 | 72 | 288 | 2.0 | 5.0 | 0.00 | 0.00 | 0.00 | 42 | 1015.7 |
| 20260902201216 | 72 | 309 | 2.0 | 5.0 | 0.00 | 0.00 | 0.00 | 44 | 1015.6 |
| 20260902201010 | 72 | 71 | 1.0 | 5.0 | 0.00 | 0.00 | 0.00 | 41 | 1015.7 |
| 20260902200804 | 72 | 164 | 1.0 | 4.0 | 0.00 | 0.00 | 0.00 | 42 | 1015.7 |
| 20260902200600 | 72 | 163 | 1.0 | 5.0 | 0.00 | 0.00 | 0.00 | 43 | 1015.6 |
| 20260902200346 | 72 | 220 | 1.0 | 5.0 | 0.00 | 0.00 | 0.00 | 43 | 1015.7 |
| 20260902200141 | 72 | 169 | 1.0 | 5.0 | 0.00 | 0.00 | 0.00 | 42 | 1015.6 |
| 20260902195746 | 72 | 275 | 1.0 | 5.0 | 0.00 | 0.00 | 0.00 | 41 | 1015.7 |
| 20260902195533 | 72 | 275 | 1.0 | 6.0 | 0.00 | 0.00 | 0.00 | 42 | 1015.7 |
| 20260902195321 | 72 | 286 | 1.0 | 6.0 | 0.00 | 0.00 | 0.00 | 42 | 1015.7 |
| 20260902195111 | 71 | 286 | 1.0 | 6.0 | 0.00 | 0.00 | 0.00 | 42 | 1015.7 |
| 20260902194904 | 71 | 283 | 1.0 | 6.0 | 0.00 | 0.00 | 0.00 | 42 | 1015.9 |
| 20260902194509 | 71 | 271 | 1.0 | 7.0 | 0.00 | 0.00 | 0.00 | 43 | 1015.8 |
| 20260902194306 | 71 | 305 | 1.0 | 7.0 | 0.00 | 0.00 | 0.00 | 43 | 1015.8 |
| 20260902194100 | 71 | 198 | 1.0 | 7.0 | 0.00 | 0.00 | 0.00 | 43 | 1015.8 |
| 20260902193848 | 71 | 229 | 1.0 | 7.0 | 0.00 | 0.00 | 0.00 | 43 | 1015.8 |
| 20260902193637 | 71 | 250 | 1.0 | 7.0 | 0.00 | 0.00 | 0.00 | 44 | 1015.7 |
| 20260902193248 | 71 | 293 | 1.0 | 7.0 | 0.00 | 0.00 | 0.00 | 42 | 1015.8 |
| 20260902193037 | 71 | 277 | 2.0 | 7.0 | 0.00 | 0.00 | 0.00 | 43 | 1015.8 |
| 20260902192828 | 71 | 217 | 1.0 | 7.0 | 0.00 | 0.00 | 0.00 | 43 | 1015.8 |
| 20260902192436 | 71 | 167 | 1.0 | 6.0 | 0.00 | 0.00 | 0.00 | 44 | 1015.8 |
| 20260902192225 | 71 | 217 | 1.0 | 6.0 | 0.00 | 0.00 | 0.00 | 43 | 1015.8 |
| 20260902192016 | 71 | 184 | 1.0 | 6.0 | 0.00 | 0.00 | 0.00 | 43 | 1015.8 |
| 20260902191808 | 71 | 203 | 1.0 | 6.0 | 0.00 | 0.00 | 0.00 | 43 | 1015.8 |
| 20260902191558 | 71 | 220 | 1.0 | 6.0 | 0.00 | 0.00 | 0.00 | 43 | 1015.9 |
| 20260902191347 | 71 | 317 | 1.0 | 6.0 | 0.00 | 0.00 | 0.00 | 42 | 1015.9 |
| 20260902191141 | 70 | 285 | 1.0 | 6.0 | 0.00 | 0.00 | 0.00 | 42 | 1015.9 |
| 20260902190928 | 70 | 47 | 1.0 | 5.0 | 0.00 | 0.00 | 0.00 | 41 | 1015.8 |
| 20260902190720 | 71 | 284 | 1.0 | 5.0 | 0.00 | 0.00 | 0.00 | 42 | 1015.8 |
| 20260902190515 | 71 | 294 | 1.0 | 5.0 | 0.00 | 0.00 | 0.00 | 43 | 1015.9 |
| 20260902190304 | 71 | 277 | 1.0 | 5.0 | 0.00 | 0.00 | 0.00 | 41 | 1015.8 |
| 20260902190054 | 70 | 286 | 0.0 | 5.0 | 0.00 | 0.00 | 0.00 | 42 | 1015.8 |
| 20260902185849 | 70 | 287 | 1.0 | 5.0 | 0.00 | 0.00 | 0.00 | 43 | 1015.8 |
| 20260902185640 | 70 | 288 | 1.0 | 5.0 | 0.00 | 0.00 | 0.00 | 44 | 1015.8 |
| 20260902185429 | 70 | 288 | 1.0 | 5.0 | 0.00 | 0.00 | 0.00 | 43 | 1015.8 |
| 20260902185221 | 70 | 222 | 0.0 | 5.0 | 0.00 | 0.00 | 0.00 | 44 | 1015.8 |
| 20260902185010 | 69 | 222 | 0.0 | 5.0 | 0.00 | 0.00 | 0.00 | 44 | 1015.9 |
| 20260902184800 | 68 | 198 | 0.0 | 2.0 | 0.00 | 0.00 | 0.00 | 45 | 1015.8 |
| 20260902184558 | 68 | 198 | 0.0 | 0.0 | 0.00 | 0.00 | 0.00 | 44 | 1015.9 |
| 20260902184208 | 68 | 202 | 0.0 | 6.0 | 0.00 | 0.00 | 0.00 | 45 | 1016.0 |
| 20260902183959 | 68 | 204 | 1.0 | 6.0 | 0.00 | 0.00 | 0.00 | 45 | 1016.0 |
| 20260902183746 | 68 | 204 | 1.0 | 6.0 | 0.00 | 0.00 | 0.00 | 45 | 1016.0 |
| 20260902183354 | 67 | 80 | 1.0 | 6.0 | 0.00 | 0.00 | 0.00 | 46 | 1015.9 |
| 20260902183145 | 67 | 211 | 2.0 | 6.0 | 0.00 | 0.00 | 0.00 | 46 | 1015.9 |
| 20260902182933 | 67 | 207 | 1.0 | 6.0 | 0.00 | 0.00 | 0.00 | 46 | 1015.9 |
| 20260902182726 | 67 | 221 | 1.0 | 6.0 | 0.00 | 0.00 | 0.00 | 46 | 1015.8 |
| 20260902182518 | 66 | 209 | 0.0 | 5.0 | 0.00 | 0.00 | 0.00 | 47 | 1015.9 |
| 20260902182308 | 66 | 217 | 0.0 | 4.0 | 0.00 | 0.00 | 0.00 | 47 | 1015.8 |
| 20260902182100 | 66 | 194 | 0.0 | 1.0 | 0.00 | 0.00 | 0.00 | 47 | 1015.9 |
| 20260902181853 | 66 | 194 | 0.0 | 0.0 | 0.00 | 0.00 | 0.00 | 47 | 1015.9 |
| 20260902181641 | 66 | 194 | 1.0 | 7.0 | 0.00 | 0.00 | 0.00 | 47 | 1015.9 |
| 20260902181437 | 66 | 194 | 0.0 | 4.0 | 0.00 | 0.00 | 0.00 | 48 | 1016.0 |
| 20260902180903 | 66 | 175 | 2.0 | 4.0 | 0.00 | 0.00 | 0.00 | 48 | 1016.0 |
| 20260902180650 | 65 | 219 | 2.0 | 4.0 | 0.00 | 0.00 | 0.00 | 48 | 1016.0 |
| 20260902180439 | 65 | 336 | 2.0 | 7.0 | 0.00 | 0.00 | 0.00 | 48 | 1016.0 |
| 20260902180235 | 65 | 335 | 2.0 | 7.0 | 0.00 | 0.00 | 0.00 | 48 | 1016.1 |
| 20260902180025 | 65 | 292 | 1.0 | 7.0 | 0.00 | 0.00 | 0.00 | 49 | 1016.1 |
| 20260902175628 | 65 | 298 | 1.0 | 7.0 | 0.00 | 0.00 | 0.00 | 50 | 1016.1 |
| 20260902175049 | 64 | 216 | 1.0 | 7.0 | 0.00 | 0.00 | 0.00 | 50 | 1016.1 |
| 20260902174846 | 64 | 216 | 2.0 | 7.0 | 0.00 | 0.00 | 0.00 | 50 | 1016.1 |
| 20260902174458 | 64 | 216 | 2.0 | 7.0 | 0.00 | 0.00 | 0.00 | 50 | 1016.1 |
| 20260902174253 | 64 | 216 | 1.0 | 7.0 | 0.00 | 0.00 | 0.00 | 51 | 1016.2 |
| 20260902174044 | 64 | 215 | 1.0 | 7.0 | 0.00 | 0.00 | 0.00 | 51 | 1016.2 |
| 20260902173833 | 63 | 215 | 1.0 | 7.0 | 0.00 | 0.00 | 0.00 | 51 | 1016.1 |
| 20260902173620 | 63 | 247 | 0.0 | 5.0 | 0.00 | 0.00 | 0.00 | 51 | 1016.1 |
| 20260902173415 | 63 | 217 | 1.0 | 5.0 | 0.00 | 0.00 | 0.00 | 52 | 1016.1 |
| 20260902173021 | 63 | 218 | 1.0 | 5.0 | 0.00 | 0.00 | 0.00 | 52 | 1016.1 |
| 20260902172624 | 62 | 219 | 1.0 | 5.0 | 0.00 | 0.00 | 0.00 | 52 | 1016.1 |
| 20260902172413 | 62 | 219 | 0.0 | 5.0 | 0.00 | 0.00 | 0.00 | 53 | 1016.0 |
| 20260902172211 | 62 | 219 | 0.0 | 3.0 | 0.00 | 0.00 | 0.00 | 52 | 1016.0 |
| 20260902172000 | 62 | 218 | 0.0 | 2.0 | 0.00 | 0.00 | 0.00 | 54 | 1016.0 |
| 20260902171754 | 61 | 218 | 0.0 | 4.0 | 0.00 | 0.00 | 0.00 | 54 | 1016.0 |
| 20260902171549 | 61 | 216 | 0.0 | 1.0 | 0.00 | 0.00 | 0.00 | 54 | 1016.0 |
| 20260902171338 | 61 | 216 | 1.0 | 6.0 | 0.00 | 0.00 | 0.00 | 54 | 1016.0 |
| 20260902171126 | 61 | 216 | 1.0 | 6.0 | 0.00 | 0.00 | 0.00 | 55 | 1016.0 |
| 20260902170923 | 61 | 216 | 0.0 | 6.0 | 0.00 | 0.00 | 0.00 | 55 | 1016.0 |
| 20260902170718 | 60 | 216 | 1.0 | 6.0 | 0.00 | 0.00 | 0.00 | 56 | 1015.9 |
| 20260902170512 | 60 | 216 | 1.0 | 6.0 | 0.00 | 0.00 | 0.00 | 56 | 1015.9 |
| 20260902170259 | 60 | 217 | 1.0 | 6.0 | 0.00 | 0.00 | 0.00 | 56 | 1015.9 |
| 20260902170051 | 60 | 216 | 1.0 | 6.0 | 0.00 | 0.00 | 0.00 | 57 | 1015.9 |
| 20260902165838 | 59 | 216 | 1.0 | 6.0 | 0.00 | 0.00 | 0.00 | 57 | 1015.9 |
| 20260902165627 | 59 | 216 | 1.0 | 6.0 | 0.00 | 0.00 | 0.00 | 58 | 1015.9 |
| 20260902165424 | 59 | 227 | 1.0 | 5.0 | 0.00 | 0.00 | 0.00 | 59 | 1015.9 |
| 20260902165213 | 58 | 242 | 0.0 | 3.0 | 0.00 | 0.00 | 0.00 | 59 | 1015.9 |
| 20260902165011 | 58 | 242 | 0.0 | 3.0 | 0.00 | 0.00 | 0.00 | 60 | 1015.9 |
| 20260902164806 | 58 | 242 | 0.0 | 3.0 | 0.00 | 0.00 | 0.00 | 60 | 1015.8 |
| 20260902164601 | 57 | 242 | 0.0 | 3.0 | 0.00 | 0.00 | 0.00 | 61 | 1015.9 |
| 20260902164204 | 57 | 217 | 0.0 | 2.0 | 0.00 | 0.00 | 0.00 | 61 | 1015.8 |
| 20260902163956 | 57 | 218 | 0.0 | 0.0 | 0.00 | 0.00 | 0.00 | 62 | 1015.8 |
| 20260902163744 | 56 | 218 | 0.0 | 5.0 | 0.00 | 0.00 | 0.00 | 62 | 1015.9 |
| 20260902163541 | 56 | 220 | 0.0 | 5.0 | 0.00 | 0.00 | 0.00 | 63 | 1015.9 |
| 20260902163329 | 56 | 220 | 0.0 | 5.0 | 0.00 | 0.00 | 0.00 | 64 | 1015.9 |
| 20260902163119 | 55 | 272 | 0.0 | 0.0 | 0.00 | 0.00 | 0.00 | 65 | 1016.0 |
| 20260902162914 | 55 | 272 | 0.0 | 0.0 | 0.00 | 0.00 | 0.00 | 65 | 1015.9 |
| 20260902162701 | 55 | 272 | 0.0 | 2.0 | 0.00 | 0.00 | 0.00 | 65 | 1016.0 |
| 20260902162455 | 54 | 272 | 0.0 | 1.0 | 0.00 | 0.00 | 0.00 | 66 | 1016.0 |
| 20260902162248 | 54 | 272 | 0.0 | 0.0 | 0.00 | 0.00 | 0.00 | 67 | 1016.0 |
| 20260902162042 | 54 | 272 | 0.0 | 0.0 | 0.00 | 0.00 | 0.00 | 67 | 1016.0 |
| 20260902161834 | 53 | 272 | 0.0 | 2.0 | 0.00 | 0.00 | 0.00 | 68 | 1016.0 |
| 20260902161302 | 53 | 272 | 0.0 | 0.0 | 0.00 | 0.00 | 0.00 | 69 | 1016.0 |
| 20260902161056 | 53 | 272 | 0.0 | 2.0 | 0.00 | 0.00 | 0.00 | 70 | 1016.0 |
| 20260902160705 | 52 | 272 | 0.0 | 2.0 | 0.00 | 0.00 | 0.00 | 71 | 1016.1 |
| 20260902160456 | 52 | 272 | 0.0 | 2.0 | 0.00 | 0.00 | 0.00 | 71 | 1016.1 |
| 20260902160107 | 51 | 272 | 0.0 | 2.0 | 0.00 | 0.00 | 0.00 | 72 | 1016.0 |
| 20260902155857 | 51 | 272 | 0.0 | 0.0 | 0.00 | 0.00 | 0.00 | 72 | 1016.0 |
| 20260902155650 | 51 | 272 | 0.0 | 2.0 | 0.00 | 0.00 | 0.00 | 73 | 1016.1 |
| 20260902155445 | 51 | 272 | 0.0 | 1.0 | 0.00 | 0.00 | 0.00 | 73 | 1016.0 |
| 20260902155244 | 50 | 272 | 0.0 | 1.0 | 0.00 | 0.00 | 0.00 | 74 | 1016.0 |
| 20260902155034 | 50 | 272 | 0.0 | 0.0 | 0.00 | 0.00 | 0.00 | 74 | 1016.0 |
| 20260902154821 | 50 | 272 | 0.0 | 0.0 | 0.00 | 0.00 | 0.00 | 74 | 1016.1 |
| 20260902154429 | 50 | 272 | 0.0 | 0.0 | 0.00 | 0.00 | 0.00 | 74 | 1016.0 |
| 20260902154226 | 49 | 272 | 0.0 | 0.0 | 0.00 | 0.00 | 0.00 | 74 | 1016.1 |
| 20260902154012 | 49 | 272 | 0.0 | 2.0 | 0.00 | 0.00 | 0.00 | 74 | 1016.1 |
| 20260902153806 | 49 | 273 | 0.0 | 0.0 | 0.00 | 0.00 | 0.00 | 74 | 1016.1 |
| 20260902153555 | 49 | 273 | 0.0 | 0.0 | 0.00 | 0.00 | 0.00 | 74 | 1016.1 |
| 20260902153350 | 49 | 272 | 0.0 | 0.0 | 0.00 | 0.00 | 0.00 | 74 | 1016.0 |
| 20260902152957 | 48 | 272 | 0.0 | 0.0 | 0.00 | 0.00 | 0.00 | 73 | 1016.0 |
| 20260902152752 | 48 | 272 | 0.0 | 0.0 | 0.00 | 0.00 | 0.00 | 73 | 1016.0 |
| 20260902152540 | 48 | 273 | 0.0 | 0.0 | 0.00 | 0.00 | 0.00 | 73 | 1016.0 |
| 20260902152333 | 48 | 273 | 0.0 | 0.0 | 0.00 | 0.00 | 0.00 | 73 | 1016.0 |
| 20260902152129 | 48 | 273 | 0.0 | 0.0 | 0.00 | 0.00 | 0.00 | 72 | 1015.9 |
| 20260902151921 | 48 | 272 | 0.0 | 0.0 | 0.00 | 0.00 | 0.00 | 72 | 1015.9 |
| 20260902151524 | 48 | 273 | 0.0 | 0.0 | 0.00 | 0.00 | 0.00 | 71 | 1015.9 |
| 20260902151314 | 48 | 273 | 0.0 | 0.0 | 0.00 | 0.00 | 0.00 | 71 | 1015.9 |
| 20260902151108 | 48 | 272 | 0.0 | 0.0 | 0.00 | 0.00 | 0.00 | 71 | 1015.9 |
| 20260902150856 | 47 | 273 | 0.0 | 0.0 | 0.00 | 0.00 | 0.00 | 71 | 1015.8 |
| 20260902150650 | 47 | 273 | 0.0 | 0.0 | 0.00 | 0.00 | 0.00 | 71 | 1015.8 |
| 20260902150442 | 47 | 272 | 0.0 | 0.0 | 0.00 | 0.00 | 0.00 | 71 | 1015.8 |
| 20260902150233 | 47 | 272 | 0.0 | 0.0 | 0.00 | 0.00 | 0.00 | 71 | 1015.8 |
| 20260902150031 | 47 | 272 | 0.0 | 0.0 | 0.00 | 0.00 | 0.00 | 71 | 1015.8 |
| 20260902145818 | 47 | 273 | 0.0 | 0.0 | 0.00 | 0.00 | 0.00 | 70 | 1015.7 |
| 20260902145427 | 47 | 273 | 0.0 | 0.0 | 0.00 | 0.00 | 0.00 | 70 | 1015.6 |
| 20260902145221 | 47 | 272 | 0.0 | 0.0 | 0.00 | 0.00 | 0.00 | 70 | 1015.6 |
| 20260902144824 | 47 | 272 | 0.0 | 0.0 | 0.00 | 0.00 | 0.00 | 70 | 1015.6 |
| 20260902144617 | 47 | 273 | 0.0 | 0.0 | 0.00 | 0.00 | 0.00 | 70 | 1015.5 |
| 20260902144414 | 47 | 272 | 0.0 | 0.0 | 0.00 | 0.00 | 0.00 | 70 | 1015.5 |
| 20260902144021 | 47 | 272 | 0.0 | 0.0 | 0.00 | 0.00 | 0.00 | 70 | 1015.5 |
| 20260902143625 | 47 | 273 | 0.0 | 0.0 | 0.00 | 0.00 | 0.00 | 70 | 1015.6 |
| 20260902143422 | 47 | 272 | 0.0 | 0.0 | 0.00 | 0.00 | 0.00 | 70 | 1015.6 |
| 20260902143221 | 47 | 272 | 0.0 | 0.0 | 0.00 | 0.00 | 0.00 | 70 | 1015.5 |
| 20260902143013 | 47 | 272 | 0.0 | 0.0 | 0.00 | 0.00 | 0.00 | 70 | 1015.4 |
| 20260902142803 | 46 | 273 | 0.0 | 0.0 | 0.00 | 0.00 | 0.00 | 70 | 1015.4 |
| 20260902142405 | 46 | 272 | 0.0 | 0.0 | 0.00 | 0.00 | 0.00 | 70 | 1015.4 |
| 20260902142201 | 46 | 273 | 0.0 | 0.0 | 0.00 | 0.00 | 0.00 | 69 | 1015.4 |
| 20260902141951 | 46 | 272 | 0.0 | 0.0 | 0.00 | 0.00 | 0.00 | 69 | 1015.4 |
| 20260902141740 | 46 | 272 | 0.0 | 0.0 | 0.00 | 0.00 | 0.00 | 69 | 1015.3 |
| 20260902141535 | 46 | 272 | 0.0 | 0.0 | 0.00 | 0.00 | 0.00 | 69 | 1015.4 |
| 20260902141326 | 46 | 272 | 0.0 | 0.0 | 0.00 | 0.00 | 0.00 | 69 | 1015.4 |
| 20260902140930 | 46 | 272 | 0.0 | 0.0 | 0.00 | 0.00 | 0.00 | 69 | 1015.4 |
| 20260902140728 | 46 | 273 | 0.0 | 0.0 | 0.00 | 0.00 | 0.00 | 69 | 1015.4 |
| 20260902140519 | 46 | 273 | 0.0 | 0.0 | 0.00 | 0.00 | 0.00 | 69 | 1015.4 |
| 20260902140306 | 46 | 273 | 0.0 | 0.0 | 0.00 | 0.00 | 0.00 | 69 | 1015.3 |
| 20260902140056 | 46 | 273 | 0.0 | 0.0 | 0.00 | 0.00 | 0.00 | 69 | 1015.3 |
| 20260902135845 | 46 | 272 | 0.0 | 0.0 | 0.00 | 0.00 | 0.00 | 69 | 1015.3 |
| 20260902135639 | 46 | 272 | 0.0 | 0.0 | 0.00 | 0.00 | 0.00 | 69 | 1015.3 |
| 20260902135430 | 46 | 273 | 0.0 | 0.0 | 0.00 | 0.00 | 0.00 | 69 | 1015.3 |
| 20260902135228 | 46 | 273 | 0.0 | 0.0 | 0.00 | 0.00 | 0.00 | 69 | 1015.3 |
| 20260902135024 | 46 | 272 | 0.0 | 0.0 | 0.00 | 0.00 | 0.00 | 69 | 1015.2 |
| 20260902134822 | 46 | 273 | 0.0 | 0.0 | 0.00 | 0.00 | 0.00 | 69 | 1015.1 |
| 20260902134613 | 46 | 272 | 0.0 | 0.0 | 0.00 | 0.00 | 0.00 | 69 | 1015.0 |
| 20260902134405 | 46 | 272 | 0.0 | 0.0 | 0.00 | 0.00 | 0.00 | 68 | 1015.0 |
| 20260902134201 | 46 | 273 | 0.0 | 0.0 | 0.00 | 0.00 | 0.00 | 69 | 1015.0 |
| 20260902133957 | 46 | 273 | 0.0 | 0.0 | 0.00 | 0.00 | 0.00 | 68 | 1015.0 |
| 20260902133748 | 46 | 273 | 0.0 | 0.0 | 0.00 | 0.00 | 0.00 | 68 | 1015.0 |
| 20260902133538 | 46 | 272 | 0.0 | 0.0 | 0.00 | 0.00 | 0.00 | 68 | 1015.1 |
| 20260902133140 | 46 | 272 | 0.0 | 0.0 | 0.00 | 0.00 | 0.00 | 68 | 1014.9 |
| 20260902132930 | 46 | 273 | 0.0 | 0.0 | 0.00 | 0.00 | 0.00 | 68 | 1015.0 |
| 20260902132727 | 46 | 272 | 0.0 | 0.0 | 0.00 | 0.00 | 0.00 | 68 | 1014.9 |
| 20260902132522 | 46 | 273 | 0.0 | 0.0 | 0.00 | 0.00 | 0.00 | 68 | 1014.9 |
| 20260902132315 | 46 | 273 | 0.0 | 0.0 | 0.00 | 0.00 | 0.00 | 68 | 1014.8 |
| 20260902131632 | 46 | 273 | 0.0 | 0.0 | 0.00 | 0.00 | 0.00 | 68 | 1014.8 |
| 20260902131424 | 46 | 272 | 0.0 | 0.0 | 0.00 | 0.00 | 0.00 | 68 | 1014.8 |
| 20260902130847 | 46 | 273 | 0.0 | 0.0 | 0.00 | 0.00 | 0.00 | 68 | 1014.8 |
| 20260902130635 | 46 | 273 | 0.0 | 0.0 | 0.00 | 0.00 | 0.00 | 68 | 1014.8 |
| 20260902130429 | 47 | 273 | 0.0 | 0.0 | 0.00 | 0.00 | 0.00 | 68 | 1014.7 |
| 20260902130219 | 47 | 272 | 0.0 | 0.0 | 0.00 | 0.00 | 0.00 | 68 | 1014.7 |
| 20260902125830 | 47 | 273 | 0.0 | 0.0 | 0.00 | 0.00 | 0.00 | 68 | 1014.7 |
| 20260902125623 | 47 | 273 | 0.0 | 0.0 | 0.00 | 0.00 | 0.00 | 68 | 1014.7 |
| 20260902125421 | 47 | 273 | 0.0 | 0.0 | 0.00 | 0.00 | 0.00 | 68 | 1014.7 |
| 20260902125212 | 47 | 273 | 0.0 | 0.0 | 0.00 | 0.00 | 0.00 | 68 | 1014.7 |
| 20260902124819 | 47 | 272 | 0.0 | 0.0 | 0.00 | 0.00 | 0.00 | 68 | 1014.6 |
| 20260902124613 | 47 | 273 | 0.0 | 0.0 | 0.00 | 0.00 | 0.00 | 68 | 1014.7 |
| 20260902124402 | 47 | 272 | 0.0 | 0.0 | 0.00 | 0.00 | 0.00 | 68 | 1014.7 |
| 20260902124151 | 47 | 272 | 0.0 | 0.0 | 0.00 | 0.00 | 0.00 | 68 | 1014.7 |
| 20260902123940 | 47 | 273 | 0.0 | 0.0 | 0.00 | 0.00 | 0.00 | 68 | 1014.6 |
| 20260902123739 | 47 | 273 | 0.0 | 0.0 | 0.00 | 0.00 | 0.00 | 68 | 1014.7 |
| 20260902123532 | 47 | 273 | 0.0 | 0.0 | 0.00 | 0.00 | 0.00 | 68 | 1014.7 |
| 20260902123320 | 47 | 273 | 0.0 | 0.0 | 0.00 | 0.00 | 0.00 | 68 | 1014.7 |
| 20260902123110 | 47 | 273 | 0.0 | 0.0 | 0.00 | 0.00 | 0.00 | 68 | 1014.8 |
| 20260902122856 | 47 | 272 | 0.0 | 0.0 | 0.00 | 0.00 | 0.00 | 67 | 1014.8 |
| 20260902122644 | 47 | 272 | 0.0 | 0.0 | 0.00 | 0.00 | 0.00 | 67 | 1014.7 |
| 20260902122443 | 47 | 273 | 0.0 | 0.0 | 0.00 | 0.00 | 0.00 | 67 | 1014.8 |
| 20260902122237 | 47 | 273 | 0.0 | 0.0 | 0.00 | 0.00 | 0.00 | 67 | 1014.7 |
| 20260902122026 | 47 | 273 | 0.0 | 0.0 | 0.00 | 0.00 | 0.00 | 67 | 1014.7 |
| 20260902121628 | 47 | 272 | 0.0 | 0.0 | 0.00 | 0.00 | 0.00 | 67 | 1014.8 |
| 20260902121422 | 47 | 272 | 0.0 | 0.0 | 0.00 | 0.00 | 0.00 | 67 | 1014.8 |
| 20260902121218 | 47 | 273 | 0.0 | 0.0 | 0.00 | 0.00 | 0.00 | 67 | 1014.8 |
| 20260902121014 | 47 | 273 | 0.0 | 0.0 | 0.00 | 0.00 | 0.00 | 67 | 1014.8 |
| 20260902120804 | 47 | 272 | 0.0 | 0.0 | 0.00 | 0.00 | 0.00 | 67 | 1014.8 |
| 20260902120550 | 47 | 272 | 0.0 | 0.0 | 0.00 | 0.00 | 0.00 | 67 | 1014.8 |
| 20260902120341 | 47 | 272 | 0.0 | 0.0 | 0.00 | 0.00 | 0.00 | 67 | 1014.8 |
| 20260902120132 | 47 | 273 | 0.0 | 0.0 | 0.00 | 0.00 | 0.00 | 67 | 1014.8 |
| 20260902115739 | 47 | 273 | 0.0 | 0.0 | 0.00 | 0.00 | 0.00 | 67 | 1014.8 |
| 20260902115527 | 47 | 273 | 0.0 | 0.0 | 0.00 | 0.00 | 0.00 | 67 | 1014.8 |
| 20260902115139 | 47 | 273 | 0.0 | 0.0 | 0.00 | 0.00 | 0.00 | 66 | 1014.8 |
| 20260902114935 | 47 | 272 | 0.0 | 0.0 | 0.00 | 0.00 | 0.00 | 66 | 1014.8 |
| 20260902114723 | 47 | 273 | 0.0 | 0.0 | 0.00 | 0.00 | 0.00 | 66 | 1014.9 |
| 20260902114511 | 47 | 273 | 0.0 | 0.0 | 0.00 | 0.00 | 0.00 | 66 | 1014.9 |
| 20260902114301 | 47 | 272 | 0.0 | 0.0 | 0.00 | 0.00 | 0.00 | 66 | 1014.9 |
| 20260902114059 | 47 | 272 | 0.0 | 0.0 | 0.00 | 0.00 | 0.00 | 66 | 1015.0 |
| 20260902113852 | 47 | 273 | 0.0 | 0.0 | 0.00 | 0.00 | 0.00 | 66 | 1015.0 |
| 20260902113648 | 47 | 273 | 0.0 | 0.0 | 0.00 | 0.00 | 0.00 | 66 | 1015.0 |
| 20260902113445 | 47 | 272 | 0.0 | 0.0 | 0.00 | 0.00 | 0.00 | 66 | 1015.0 |
| 20260902113057 | 47 | 273 | 0.0 | 0.0 | 0.00 | 0.00 | 0.00 | 66 | 1014.9 |
| 20260902112851 | 47 | 272 | 0.0 | 0.0 | 0.00 | 0.00 | 0.00 | 66 | 1014.9 |
| 20260902112456 | 47 | 272 | 0.0 | 0.0 | 0.00 | 0.00 | 0.00 | 66 | 1014.8 |
| 20260902112244 | 47 | 273 | 0.0 | 0.0 | 0.00 | 0.00 | 0.00 | 66 | 1014.9 |
| 20260902112034 | 47 | 273 | 0.0 | 0.0 | 0.00 | 0.00 | 0.00 | 66 | 1014.8 |
| 20260902111825 | 47 | 273 | 0.0 | 0.0 | 0.00 | 0.00 | 0.00 | 66 | 1014.8 |
| 20260902111613 | 47 | 272 | 0.0 | 0.0 | 0.00 | 0.00 | 0.00 | 65 | 1014.8 |
| 20260902111408 | 47 | 272 | 0.0 | 0.0 | 0.00 | 0.00 | 0.00 | 65 | 1014.8 |
| 20260902111157 | 47 | 272 | 0.0 | 0.0 | 0.00 | 0.00 | 0.00 | 65 | 1014.8 |
| 20260902110945 | 47 | 273 | 0.0 | 0.0 | 0.00 | 0.00 | 0.00 | 65 | 1014.8 |
| 20260902110741 | 48 | 272 | 0.0 | 0.0 | 0.00 | 0.00 | 0.00 | 65 | 1014.8 |
| 20260902110530 | 48 | 272 | 0.0 | 0.0 | 0.00 | 0.00 | 0.00 | 65 | 1014.8 |
| 20260902110321 | 48 | 273 | 0.0 | 0.0 | 0.00 | 0.00 | 0.00 | 65 | 1014.8 |
| 20260902110111 | 48 | 273 | 0.0 | 0.0 | 0.00 | 0.00 | 0.00 | 65 | 1014.8 |
| 20260902105907 | 48 | 273 | 0.0 | 0.0 | 0.00 | 0.00 | 0.00 | 65 | 1014.7 |
| 20260902105704 | 48 | 272 | 0.0 | 0.0 | 0.00 | 0.00 | 0.00 | 65 | 1014.8 |
| 20260902105309 | 48 | 273 | 0.0 | 0.0 | 0.00 | 0.00 | 0.00 | 65 | 1014.7 |
| 20260902104920 | 48 | 273 | 0.0 | 0.0 | 0.00 | 0.00 | 0.00 | 65 | 1014.8 |
| 20260902104716 | 48 | 272 | 0.0 | 0.0 | 0.00 | 0.00 | 0.00 | 65 | 1014.7 |
| 20260902104503 | 48 | 273 | 0.0 | 0.0 | 0.00 | 0.00 | 0.00 | 64 | 1014.7 |
| 20260902104250 | 48 | 272 | 0.0 | 0.0 | 0.00 | 0.00 | 0.00 | 64 | 1014.7 |
| 20260902104038 | 48 | 273 | 0.0 | 0.0 | 0.00 | 0.00 | 0.00 | 64 | 1014.7 |
| 20260902103829 | 48 | 273 | 0.0 | 0.0 | 0.00 | 0.00 | 0.00 | 64 | 1014.7 |
| 20260902103617 | 48 | 272 | 0.0 | 0.0 | 0.00 | 0.00 | 0.00 | 64 | 1014.7 |
| 20260902103411 | 48 | 273 | 0.0 | 0.0 | 0.00 | 0.00 | 0.00 | 64 | 1014.7 |
| 20260902103206 | 48 | 272 | 0.0 | 0.0 | 0.00 | 0.00 | 0.00 | 64 | 1014.7 |
| 20260902103005 | 48 | 273 | 0.0 | 0.0 | 0.00 | 0.00 | 0.00 | 64 | 1014.6 |
| 20260902102753 | 48 | 273 | 0.0 | 0.0 | 0.00 | 0.00 | 0.00 | 64 | 1014.6 |
| 20260902102545 | 48 | 272 | 0.0 | 0.0 | 0.00 | 0.00 | 0.00 | 64 | 1014.7 |
| 20260902102335 | 48 | 273 | 0.0 | 0.0 | 0.00 | 0.00 | 0.00 | 64 | 1014.6 |
| 20260902102133 | 48 | 273 | 0.0 | 0.0 | 0.00 | 0.00 | 0.00 | 64 | 1014.6 |
| 20260902101739 | 48 | 273 | 0.0 | 0.0 | 0.00 | 0.00 | 0.00 | 63 | 1014.6 |
| 20260902101534 | 48 | 273 | 0.0 | 0.0 | 0.00 | 0.00 | 0.00 | 63 | 1014.5 |
| 20260902101137 | 48 | 272 | 0.0 | 0.0 | 0.00 | 0.00 | 0.00 | 63 | 1014.6 |
| 20260902100934 | 48 | 273 | 0.0 | 0.0 | 0.00 | 0.00 | 0.00 | 63 | 1014.6 |
| 20260902100722 | 48 | 273 | 0.0 | 0.0 | 0.00 | 0.00 | 0.00 | 63 | 1014.6 |
| 20260902100514 | 48 | 273 | 0.0 | 0.0 | 0.00 | 0.00 | 0.00 | 63 | 1014.6 |
| 20260902100304 | 48 | 272 | 0.0 | 0.0 | 0.00 | 0.00 | 0.00 | 63 | 1014.5 |
| 20260902100058 | 48 | 273 | 0.0 | 0.0 | 0.00 | 0.00 | 0.00 | 63 | 1014.5 |
| 20260902095849 | 48 | 273 | 0.0 | 0.0 | 0.00 | 0.00 | 0.00 | 63 | 1014.5 |
| 20260902095639 | 48 | 273 | 0.0 | 0.0 | 0.00 | 0.00 | 0.00 | 63 | 1014.5 |
| 20260902095250 | 48 | 273 | 0.0 | 0.0 | 0.00 | 0.00 | 0.00 | 63 | 1014.5 |
| 20260902095043 | 48 | 272 | 0.0 | 0.0 | 0.00 | 0.00 | 0.00 | 63 | 1014.5 |
| 20260902094835 | 48 | 273 | 0.0 | 0.0 | 0.00 | 0.00 | 0.00 | 63 | 1014.6 |
| 20260902094626 | 48 | 273 | 0.0 | 0.0 | 0.00 | 0.00 | 0.00 | 62 | 1014.5 |
| 20260902094417 | 48 | 273 | 0.0 | 0.0 | 0.00 | 0.00 | 0.00 | 62 | 1014.5 |
| 20260902094215 | 48 | 272 | 0.0 | 0.0 | 0.00 | 0.00 | 0.00 | 62 | 1014.5 |
| 20260902094003 | 48 | 273 | 0.0 | 0.0 | 0.00 | 0.00 | 0.00 | 62 | 1014.6 |
| 20260902093757 | 48 | 273 | 0.0 | 0.0 | 0.00 | 0.00 | 0.00 | 62 | 1014.5 |
| 20260902093547 | 48 | 272 | 0.0 | 0.0 | 0.00 | 0.00 | 0.00 | 62 | 1014.6 |
| 20260902093335 | 49 | 273 | 0.0 | 0.0 | 0.00 | 0.00 | 0.00 | 62 | 1014.6 |
| 20260902093124 | 49 | 273 | 0.0 | 0.0 | 0.00 | 0.00 | 0.00 | 62 | 1014.6 |
| 20260902092913 | 49 | 273 | 0.0 | 0.0 | 0.00 | 0.00 | 0.00 | 62 | 1014.6 |
| 20260902092710 | 49 | 273 | 0.0 | 0.0 | 0.00 | 0.00 | 0.00 | 61 | 1014.6 |
| 20260902092504 | 49 | 272 | 0.0 | 0.0 | 0.00 | 0.00 | 0.00 | 61 | 1014.6 |
| 20260902092300 | 49 | 272 | 0.0 | 0.0 | 0.00 | 0.00 | 0.00 | 61 | 1014.6 |
| 20260902092052 | 49 | 272 | 0.0 | 0.0 | 0.00 | 0.00 | 0.00 | 61 | 1014.7 |
| 20260902091841 | 49 | 273 | 0.0 | 0.0 | 0.00 | 0.00 | 0.00 | 61 | 1014.6 |
| 20260902091636 | 49 | 273 | 0.0 | 0.0 | 0.00 | 0.00 | 0.00 | 61 | 1014.6 |
| 20260902091429 | 49 | 273 | 0.0 | 0.0 | 0.00 | 0.00 | 0.00 | 61 | 1014.6 |
| 20260902091219 | 49 | 273 | 0.0 | 0.0 | 0.00 | 0.00 | 0.00 | 61 | 1014.7 |
| 20260902090822 | 49 | 273 | 0.0 | 0.0 | 0.00 | 0.00 | 0.00 | 61 | 1014.7 |
| 20260902090616 | 49 | 273 | 0.0 | 0.0 | 0.00 | 0.00 | 0.00 | 61 | 1014.6 |
| 20260902090403 | 49 | 273 | 0.0 | 0.0 | 0.00 | 0.00 | 0.00 | 61 | 1014.6 |
| 20260902090152 | 49 | 273 | 0.0 | 0.0 | 0.00 | 0.00 | 0.00 | 61 | 1014.6 |
| 20260902085946 | 49 | 273 | 0.0 | 0.0 | 0.00 | 0.00 | 0.00 | 61 | 1014.7 |
| 20260902085737 | 49 | 273 | 0.0 | 0.0 | 0.00 | 0.00 | 0.00 | 60 | 1014.6 |
| 20260902085524 | 49 | 272 | 0.0 | 0.0 | 0.00 | 0.00 | 0.00 | 60 | 1014.6 |
| 20260902085317 | 49 | 272 | 0.0 | 0.0 | 0.00 | 0.00 | 0.00 | 60 | 1014.6 |
| 20260902085107 | 49 | 272 | 0.0 | 0.0 | 0.00 | 0.00 | 0.00 | 60 | 1014.6 |
| 20260902084904 | 49 | 273 | 0.0 | 0.0 | 0.00 | 0.00 | 0.00 | 60 | 1014.6 |
| 20260902084657 | 49 | 272 | 0.0 | 0.0 | 0.00 | 0.00 | 0.00 | 60 | 1014.6 |
| 20260902084455 | 49 | 273 | 0.0 | 0.0 | 0.00 | 0.00 | 0.00 | 60 | 1014.6 |
| 20260902084251 | 49 | 272 | 0.0 | 0.0 | 0.00 | 0.00 | 0.00 | 60 | 1014.7 |
| 20260902084043 | 49 | 273 | 0.0 | 0.0 | 0.00 | 0.00 | 0.00 | 60 | 1014.6 |
| 20260902083831 | 49 | 272 | 0.0 | 0.0 | 0.00 | 0.00 | 0.00 | 60 | 1014.6 |
| 20260902083629 | 49 | 272 | 0.0 | 0.0 | 0.00 | 0.00 | 0.00 | 60 | 1014.6 |
| 20260902083417 | 49 | 273 | 0.0 | 0.0 | 0.00 | 0.00 | 0.00 | 60 | 1014.6 |
| 20260902083211 | 49 | 273 | 0.0 | 0.0 | 0.00 | 0.00 | 0.00 | 60 | 1014.7 |
| 20260902082958 | 49 | 273 | 0.0 | 0.0 | 0.00 | 0.00 | 0.00 | 60 | 1014.6 |
| 20260902082751 | 49 | 273 | 0.0 | 0.0 | 0.00 | 0.00 | 0.00 | 60 | 1014.6 |
| 20260902082548 | 49 | 273 | 0.0 | 0.0 | 0.00 | 0.00 | 0.00 | 60 | 1014.6 |
| 20260902082336 | 49 | 273 | 0.0 | 0.0 | 0.00 | 0.00 | 0.00 | 60 | 1014.6 |
| 20260902082130 | 49 | 273 | 0.0 | 0.0 | 0.00 | 0.00 | 0.00 | 60 | 1014.6 |
| 20260902081739 | 49 | 272 | 0.0 | 0.0 | 0.00 | 0.00 | 0.00 | 61 | 1014.5 |
| 20260902081534 | 49 | 273 | 0.0 | 0.0 | 0.00 | 0.00 | 0.00 | 61 | 1014.5 |
| 20260902081138 | 49 | 273 | 0.0 | 0.0 | 0.00 | 0.00 | 0.00 | 61 | 1014.5 |
| 20260902080928 | 49 | 272 | 0.0 | 0.0 | 0.00 | 0.00 | 0.00 | 61 | 1014.5 |
| 20260902080716 | 49 | 272 | 0.0 | 0.0 | 0.00 | 0.00 | 0.00 | 61 | 1014.4 |
| 20260902080512 | 49 | 272 | 0.0 | 0.0 | 0.00 | 0.00 | 0.00 | 61 | 1014.4 |
| 20260902080305 | 49 | 272 | 0.0 | 0.0 | 0.00 | 0.00 | 0.00 | 61 | 1014.4 |
| 20260902080056 | 50 | 272 | 0.0 | 0.0 | 0.00 | 0.00 | 0.00 | 61 | 1014.4 |
| 20260902075845 | 50 | 273 | 0.0 | 0.0 | 0.00 | 0.00 | 0.00 | 61 | 1014.4 |
| 20260902075632 | 50 | 273 | 0.0 | 0.0 | 0.00 | 0.00 | 0.00 | 62 | 1014.4 |
| 20260902075244 | 50 | 272 | 0.0 | 0.0 | 0.00 | 0.00 | 0.00 | 62 | 1014.4 |
| 20260902075032 | 50 | 273 | 0.0 | 0.0 | 0.00 | 0.00 | 0.00 | 62 | 1014.3 |
| 20260902074825 | 50 | 273 | 0.0 | 0.0 | 0.00 | 0.00 | 0.00 | 62 | 1014.4 |
| 20260902074616 | 50 | 272 | 0.0 | 0.0 | 0.00 | 0.00 | 0.00 | 62 | 1014.2 |
| 20260902074410 | 50 | 272 | 0.0 | 0.0 | 0.00 | 0.00 | 0.00 | 62 | 1014.3 |
| 20260902074205 | 50 | 272 | 0.0 | 0.0 | 0.00 | 0.00 | 0.00 | 62 | 1014.2 |
| 20260902073955 | 50 | 273 | 0.0 | 0.0 | 0.00 | 0.00 | 0.00 | 62 | 1014.2 |
| 20260902073754 | 50 | 272 | 0.0 | 0.0 | 0.00 | 0.00 | 0.00 | 62 | 1014.1 |
| 20260902073553 | 50 | 273 | 0.0 | 0.0 | 0.00 | 0.00 | 0.00 | 62 | 1014.1 |
| 20260902073345 | 50 | 272 | 0.0 | 0.0 | 0.00 | 0.00 | 0.00 | 62 | 1014.0 |
| 20260902073133 | 50 | 273 | 0.0 | 0.0 | 0.00 | 0.00 | 0.00 | 62 | 1014.0 |
| 20260902072928 | 50 | 272 | 0.0 | 0.0 | 0.00 | 0.00 | 0.00 | 62 | 1013.9 |
| 20260902072535 | 50 | 273 | 0.0 | 0.0 | 0.00 | 0.00 | 0.00 | 62 | 1013.8 |
| 20260902072327 | 50 | 273 | 0.0 | 0.0 | 0.00 | 0.00 | 0.00 | 62 | 1013.8 |
| 20260902071932 | 50 | 273 | 0.0 | 0.0 | 0.00 | 0.00 | 0.00 | 63 | 1013.8 |
| 20260902071722 | 50 | 273 | 0.0 | 0.0 | 0.00 | 0.00 | 0.00 | 63 | 1013.8 |
| 20260902071521 | 50 | 273 | 0.0 | 0.0 | 0.00 | 0.00 | 0.00 | 63 | 1013.8 |
| 20260902071319 | 50 | 272 | 0.0 | 0.0 | 0.00 | 0.00 | 0.00 | 63 | 1013.8 |
| 20260902071117 | 50 | 273 | 0.0 | 0.0 | 0.00 | 0.00 | 0.00 | 63 | 1013.8 |
| 20260902070909 | 50 | 272 | 0.0 | 0.0 | 0.00 | 0.00 | 0.00 | 63 | 1013.9 |
| 20260902070659 | 51 | 273 | 0.0 | 0.0 | 0.00 | 0.00 | 0.00 | 63 | 1013.9 |
| 20260902070453 | 51 | 273 | 0.0 | 0.0 | 0.00 | 0.00 | 0.00 | 63 | 1013.9 |
| 20260902070242 | 51 | 273 | 0.0 | 0.0 | 0.00 | 0.00 | 0.00 | 63 | 1013.9 |
| 20260902065848 | 51 | 272 | 0.0 | 0.0 | 0.00 | 0.00 | 0.00 | 63 | 1014.0 |
| 20260902065636 | 51 | 273 | 0.0 | 0.0 | 0.00 | 0.00 | 0.00 | 63 | 1013.9 |
| 20260902065433 | 51 | 272 | 0.0 | 0.0 | 0.00 | 0.00 | 0.00 | 63 | 1013.9 |
| 20260902065229 | 51 | 273 | 0.0 | 0.0 | 0.00 | 0.00 | 0.00 | 63 | 1013.9 |
| 20260902065016 | 51 | 272 | 0.0 | 0.0 | 0.00 | 0.00 | 0.00 | 62 | 1013.8 |
| 20260902064803 | 51 | 272 | 0.0 | 0.0 | 0.00 | 0.00 | 0.00 | 62 | 1013.7 |
| 20260902064412 | 51 | 273 | 0.0 | 0.0 | 0.00 | 0.00 | 0.00 | 62 | 1013.7 |
| 20260902064209 | 51 | 273 | 0.0 | 0.0 | 0.00 | 0.00 | 0.00 | 63 | 1013.7 |
| 20260902064002 | 51 | 272 | 0.0 | 0.0 | 0.00 | 0.00 | 0.00 | 62 | 1013.6 |
| 20260902063749 | 51 | 272 | 0.0 | 0.0 | 0.00 | 0.00 | 0.00 | 62 | 1013.7 |
| 20260902063547 | 51 | 272 | 0.0 | 0.0 | 0.00 | 0.00 | 0.00 | 62 | 1013.7 |
| 20260902063345 | 52 | 273 | 0.0 | 0.0 | 0.00 | 0.00 | 0.00 | 62 | 1013.7 |
| 20260902063133 | 52 | 273 | 0.0 | 0.0 | 0.00 | 0.00 | 0.00 | 62 | 1013.7 |
| 20260902062745 | 52 | 272 | 0.0 | 0.0 | 0.00 | 0.00 | 0.00 | 62 | 1013.7 |
| 20260902062213 | 52 | 273 | 0.0 | 0.0 | 0.00 | 0.00 | 0.00 | 62 | 1013.8 |
| 20260902062011 | 52 | 273 | 0.0 | 0.0 | 0.00 | 0.00 | 0.00 | 62 | 1013.8 |
| 20260902061802 | 52 | 273 | 0.0 | 0.0 | 0.00 | 0.00 | 0.00 | 62 | 1013.8 |
| 20260902061550 | 52 | 272 | 0.0 | 0.0 | 0.00 | 0.00 | 0.00 | 62 | 1013.8 |
| 20260902061341 | 52 | 273 | 0.0 | 0.0 | 0.00 | 0.00 | 0.00 | 62 | 1013.7 |
| 20260902061128 | 52 | 272 | 0.0 | 0.0 | 0.00 | 0.00 | 0.00 | 63 | 1013.7 |
| 20260902060920 | 52 | 272 | 0.0 | 0.0 | 0.00 | 0.00 | 0.00 | 63 | 1013.7 |
| 20260902060710 | 52 | 273 | 0.0 | 0.0 | 0.00 | 0.00 | 0.00 | 62 | 1013.7 |
| 20260902060503 | 53 | 272 | 0.0 | 0.0 | 0.00 | 0.00 | 0.00 | 62 | 1013.7 |
| 20260902060116 | 53 | 272 | 0.0 | 0.0 | 0.00 | 0.00 | 0.00 | 62 | 1013.7 |
| 20260902055915 | 53 | 273 | 0.0 | 0.0 | 0.00 | 0.00 | 0.00 | 62 | 1013.6 |
| 20260902055711 | 53 | 273 | 0.0 | 0.0 | 0.00 | 0.00 | 0.00 | 62 | 1013.8 |
| 20260902055501 | 53 | 273 | 0.0 | 0.0 | 0.00 | 0.00 | 0.00 | 62 | 1013.8 |
| 20260902055256 | 53 | 273 | 0.0 | 0.0 | 0.00 | 0.00 | 0.00 | 62 | 1013.7 |
| 20260902054902 | 53 | 272 | 0.0 | 0.0 | 0.00 | 0.00 | 0.00 | 62 | 1013.8 |
| 20260902054700 | 53 | 272 | 0.0 | 0.0 | 0.00 | 0.00 | 0.00 | 62 | 1013.7 |
| 20260902054309 | 53 | 272 | 0.0 | 0.0 | 0.00 | 0.00 | 0.00 | 61 | 1013.8 |
| 20260902054059 | 53 | 272 | 0.0 | 0.0 | 0.00 | 0.00 | 0.00 | 61 | 1013.8 |
| 20260902053854 | 53 | 273 | 0.0 | 0.0 | 0.00 | 0.00 | 0.00 | 61 | 1013.8 |
| 20260902053643 | 54 | 272 | 0.0 | 0.0 | 0.00 | 0.00 | 0.00 | 61 | 1013.8 |
| 20260902053439 | 54 | 272 | 0.0 | 0.0 | 0.00 | 0.00 | 0.00 | 61 | 1013.9 |
| 20260902053229 | 54 | 272 | 0.0 | 0.0 | 0.00 | 0.00 | 0.00 | 61 | 1013.9 |
| 20260902053025 | 54 | 272 | 0.0 | 0.0 | 0.00 | 0.00 | 0.00 | 61 | 1013.9 |
| 20260902052816 | 54 | 272 | 0.0 | 0.0 | 0.00 | 0.00 | 0.00 | 61 | 1013.8 |
| 20260902052607 | 54 | 272 | 0.0 | 0.0 | 0.00 | 0.00 | 0.00 | 60 | 1013.9 |
| 20260902052403 | 54 | 273 | 0.0 | 0.0 | 0.00 | 0.00 | 0.00 | 60 | 1013.9 |
| 20260902052152 | 54 | 272 | 0.0 | 0.0 | 0.00 | 0.00 | 0.00 | 60 | 1013.9 |
| 20260902051944 | 54 | 272 | 0.0 | 0.0 | 0.00 | 0.00 | 0.00 | 60 | 1014.0 |
| 20260902051732 | 54 | 272 | 0.0 | 0.0 | 0.00 | 0.00 | 0.00 | 60 | 1013.9 |
| 20260902051522 | 54 | 272 | 0.0 | 0.0 | 0.00 | 0.00 | 0.00 | 60 | 1014.0 |
| 20260902051318 | 55 | 272 | 0.0 | 0.0 | 0.00 | 0.00 | 0.00 | 60 | 1013.9 |
| 20260902051115 | 55 | 272 | 0.0 | 0.0 | 0.00 | 0.00 | 0.00 | 59 | 1013.9 |
| 20260902050903 | 55 | 273 | 0.0 | 0.0 | 0.00 | 0.00 | 0.00 | 59 | 1013.8 |
| 20260902050657 | 55 | 272 | 0.0 | 0.0 | 0.00 | 0.00 | 0.00 | 59 | 1013.8 |
| 20260902050311 | 55 | 273 | 0.0 | 0.0 | 0.00 | 0.00 | 0.00 | 59 | 1013.8 |
| 20260902050108 | 55 | 272 | 0.0 | 0.0 | 0.00 | 0.00 | 0.00 | 59 | 1013.8 |
| 20260902045857 | 55 | 272 | 0.0 | 0.0 | 0.00 | 0.00 | 0.00 | 58 | 1013.7 |
| 20260902045500 | 56 | 272 | 0.0 | 0.0 | 0.00 | 0.00 | 0.00 | 58 | 1013.8 |
| 20260902045254 | 56 | 272 | 0.0 | 0.0 | 0.00 | 0.00 | 0.00 | 58 | 1013.8 |
| 20260902045045 | 56 | 273 | 0.0 | 0.0 | 0.00 | 0.00 | 0.00 | 58 | 1013.7 |
| 20260902044658 | 56 | 272 | 0.0 | 0.0 | 0.00 | 0.00 | 0.00 | 58 | 1013.7 |
| 20260902044448 | 56 | 273 | 0.0 | 0.0 | 0.00 | 0.00 | 0.00 | 58 | 1013.7 |
| 20260902044244 | 56 | 272 | 0.0 | 0.0 | 0.00 | 0.00 | 0.00 | 57 | 1013.6 |
| 20260902044041 | 56 | 272 | 0.0 | 0.0 | 0.00 | 0.00 | 0.00 | 57 | 1013.5 |
| 20260902043830 | 56 | 272 | 0.0 | 0.0 | 0.00 | 0.00 | 0.00 | 57 | 1013.5 |
| 20260902043620 | 56 | 272 | 0.0 | 0.0 | 0.00 | 0.00 | 0.00 | 57 | 1013.5 |
| 20260902043413 | 57 | 272 | 0.0 | 0.0 | 0.00 | 0.00 | 0.00 | 56 | 1013.4 |
| 20260902043205 | 57 | 273 | 0.0 | 0.0 | 0.00 | 0.00 | 0.00 | 56 | 1013.4 |
| 20260902043002 | 57 | 272 | 0.0 | 0.0 | 0.00 | 0.00 | 0.00 | 56 | 1013.4 |
| 20260902042758 | 57 | 272 | 0.0 | 0.0 | 0.00 | 0.00 | 0.00 | 56 | 1013.4 |
| 20260902042552 | 57 | 272 | 0.0 | 0.0 | 0.00 | 0.00 | 0.00 | 56 | 1013.4 |
| 20260902042156 | 57 | 272 | 0.0 | 0.0 | 0.00 | 0.00 | 0.00 | 55 | 1013.2 |
| 20260902041952 | 57 | 272 | 0.0 | 0.0 | 0.00 | 0.00 | 0.00 | 55 | 1013.2 |
| 20260902041742 | 58 | 273 | 0.0 | 0.0 | 0.00 | 0.00 | 0.00 | 55 | 1013.2 |
| 20260902041537 | 58 | 272 | 0.0 | 0.0 | 0.00 | 0.00 | 0.00 | 55 | 1013.1 |
| 20260902041005 | 58 | 272 | 0.0 | 0.0 | 0.00 | 0.00 | 0.00 | 54 | 1013.1 |
| 20260902040755 | 58 | 273 | 0.0 | 0.0 | 0.00 | 0.00 | 0.00 | 54 | 1013.1 |
| 20260902040548 | 58 | 272 | 0.0 | 0.0 | 0.00 | 0.00 | 0.00 | 54 | 1013.0 |
| 20260902040343 | 58 | 273 | 0.0 | 0.0 | 0.00 | 0.00 | 0.00 | 54 | 1013.0 |
| 20260902040137 | 59 | 272 | 0.0 | 0.0 | 0.00 | 0.00 | 0.00 | 53 | 1013.0 |
| 20260902035933 | 59 | 272 | 0.0 | 0.0 | 0.00 | 0.00 | 0.00 | 53 | 1013.0 |
| 20260902035722 | 59 | 272 | 0.0 | 0.0 | 0.00 | 0.00 | 0.00 | 53 | 1013.0 |
| 20260902035510 | 59 | 272 | 0.0 | 0.0 | 0.00 | 0.00 | 0.00 | 53 | 1013.0 |
| 20260902035308 | 59 | 272 | 0.0 | 0.0 | 0.00 | 0.00 | 0.00 | 53 | 1013.0 |
| 20260902035058 | 59 | 272 | 0.0 | 0.0 | 0.00 | 0.00 | 0.00 | 53 | 1012.9 |
| 20260902034849 | 60 | 272 | 0.0 | 0.0 | 0.00 | 0.00 | 0.00 | 52 | 1012.8 |
| 20260902034645 | 60 | 272 | 0.0 | 0.0 | 0.00 | 0.00 | 0.00 | 52 | 1012.8 |
| 20260902034251 | 60 | 272 | 0.0 | 0.0 | 0.00 | 0.00 | 0.00 | 52 | 1012.8 |
| 20260902033716 | 61 | 272 | 0.0 | 0.0 | 0.00 | 0.00 | 0.00 | 51 | 1012.7 |
| 20260902033321 | 61 | 272 | 0.0 | 0.0 | 0.00 | 0.00 | 0.00 | 51 | 1012.7 |
| 20260902033110 | 61 | 272 | 0.0 | 0.0 | 0.00 | 0.00 | 0.00 | 50 | 1012.6 |
| 20260902032722 | 61 | 272 | 0.0 | 0.0 | 0.00 | 0.00 | 0.00 | 50 | 1012.7 |
| 20260902032518 | 62 | 272 | 0.0 | 0.0 | 0.00 | 0.00 | 0.00 | 50 | 1012.7 |
| 20260902032307 | 62 | 272 | 0.0 | 0.0 | 0.00 | 0.00 | 0.00 | 50 | 1012.7 |
| 20260902032059 | 62 | 272 | 0.0 | 0.0 | 0.00 | 0.00 | 0.00 | 49 | 1012.7 |
| 20260902031854 | 62 | 272 | 0.0 | 0.0 | 0.00 | 0.00 | 0.00 | 49 | 1012.7 |
| 20260902031644 | 63 | 272 | 0.0 | 0.0 | 0.00 | 0.00 | 0.00 | 49 | 1012.7 |
| 20260902031247 | 63 | 272 | 0.0 | 0.0 | 0.00 | 0.00 | 0.00 | 49 | 1012.6 |
| 20260902031038 | 63 | 272 | 0.0 | 0.0 | 0.00 | 0.00 | 0.00 | 48 | 1012.6 |
| 20260902030831 | 64 | 272 | 0.0 | 0.0 | 0.00 | 0.00 | 0.00 | 48 | 1012.7 |
| 20260902030627 | 64 | 272 | 0.0 | 0.0 | 0.00 | 0.00 | 0.00 | 48 | 1012.6 |
| 20260902030421 | 64 | 272 | 0.0 | 0.0 | 0.00 | 0.00 | 0.00 | 47 | 1012.7 |
| 20260902030216 | 64 | 272 | 0.0 | 0.0 | 0.00 | 0.00 | 0.00 | 47 | 1012.7 |
| 20260902030007 | 64 | 272 | 0.0 | 0.0 | 0.00 | 0.00 | 0.00 | 47 | 1012.7 |
| 20260902025806 | 65 | 272 | 0.0 | 0.0 | 0.00 | 0.00 | 0.00 | 47 | 1012.6 |
| 20260902025556 | 65 | 272 | 0.0 | 0.0 | 0.00 | 0.00 | 0.00 | 46 | 1012.6 |
| 20260902025351 | 65 | 272 | 0.0 | 0.0 | 0.00 | 0.00 | 0.00 | 46 | 1012.6 |
| 20260902025146 | 65 | 272 | 0.0 | 0.0 | 0.00 | 0.00 | 0.00 | 46 | 1012.5 |
| 20260902024934 | 65 | 272 | 0.0 | 0.0 | 0.00 | 0.00 | 0.00 | 46 | 1012.5 |
| 20260902024726 | 66 | 272 | 0.0 | 0.0 | 0.00 | 0.00 | 0.00 | 46 | 1012.5 |
| 20260902024337 | 66 | 272 | 0.0 | 0.0 | 0.00 | 0.00 | 0.00 | 46 | 1012.4 |
| 20260902023946 | 66 | 272 | 0.0 | 0.0 | 0.00 | 0.00 | 0.00 | 46 | 1012.3 |
| 20260902023739 | 66 | 272 | 0.0 | 0.0 | 0.00 | 0.00 | 0.00 | 45 | 1012.2 |
| 20260902023531 | 66 | 272 | 0.0 | 0.0 | 0.00 | 0.00 | 0.00 | 45 | 1012.2 |
| 20260902023317 | 66 | 272 | 0.0 | 0.0 | 0.00 | 0.00 | 0.00 | 45 | 1012.2 |
| 20260902023115 | 67 | 272 | 0.0 | 0.0 | 0.00 | 0.00 | 0.00 | 45 | 1012.2 |
| 20260902022901 | 67 | 272 | 0.0 | 0.0 | 0.00 | 0.00 | 0.00 | 45 | 1012.2 |
| 20260902022656 | 67 | 272 | 0.0 | 0.0 | 0.00 | 0.00 | 0.00 | 45 | 1012.2 |
| 20260902022452 | 67 | 272 | 0.0 | 3.0 | 0.00 | 0.00 | 0.00 | 45 | 1012.2 |
| 20260902022242 | 67 | 272 | 0.0 | 0.0 | 0.00 | 0.00 | 0.00 | 45 | 1012.2 |
| 20260902022040 | 67 | 272 | 0.0 | 0.0 | 0.00 | 0.00 | 0.00 | 45 | 1012.2 |
| 20260902021832 | 67 | 272 | 0.0 | 0.0 | 0.00 | 0.00 | 0.00 | 45 | 1012.2 |
| 20260902021623 | 67 | 272 | 0.0 | 0.0 | 0.00 | 0.00 | 0.00 | 44 | 1012.2 |
| 20260902021412 | 68 | 272 | 0.0 | 0.0 | 0.00 | 0.00 | 0.00 | 44 | 1012.2 |
| 20260902021020 | 68 | 272 | 0.0 | 0.0 | 0.00 | 0.00 | 0.00 | 44 | 1012.0 |
| 20260902020814 | 68 | 272 | 0.0 | 0.0 | 0.00 | 0.00 | 0.00 | 43 | 1012.0 |
| 20260902020424 | 68 | 272 | 0.0 | 2.0 | 0.00 | 0.00 | 0.00 | 43 | 1012.0 |
| 20260902020214 | 68 | 272 | 0.0 | 0.0 | 0.00 | 0.00 | 0.00 | 43 | 1012.0 |